Retour au catalogue

EOS-6

ActifScienceSSO
NORAD 54361·PAYLOAD·🇮🇳 India

Lancé Nov 26, 2022 depuis Satish Dhawan Space Centre

Loading…

Prochains Passages (prochaines 24 heures)

TLE

FraisSource: Space-Track

Époque: Sep 14, 2026, 15:23 UTC

1 54361U 22158A   26257.64166520  .00000166  00000-0  57640-4 0  9998
2 54361  98.3552 354.6511 0002317  89.2107 270.9351 14.46978317200771

Suivez EOS-6 en temps réel avec AllMySat

Download on the App Store